Flag for Honduras Weather past 2 weeks in Tegucigalpa, Honduras

Now
86 °F

Scattered clouds.


Feels Like: 84 °F
Forecast: N/A
Wind: 9 mph from East

Location: Tegucigalpa Airport


UV Index: N/A

Visibility: N/A


Pressure: 30.01 "Hg

Humidity: 33%

Dew point: 54 °F

Location of TegucigalpaLocation

Historic Weather in Tegucigalpa

°F

Tegucigalpa temperature yesterday

Maximum temperature yesterday: 90 °F (at 1:00 PM)
Minimum temperature yesterday: 70 °F (at 6:00 AM)
Average temperature yesterday: 79 °F

Past Weeks' High & Low Weather Summary

 TemperatureHumidityPressure
High93 °F (Apr 8, 12:00 PM)94% (Apr 4, 6:00 AM)30.27 "Hg (Apr 4, 6:00 AM)
Low55 °F (Apr 8, 6:00 AM)12% (Apr 8, 3:00 PM)29.89 "Hg (Apr 14, 5:00 PM)
Average75 °F54%30.06 "Hg
* Reported Apr 2 4:00 PM — Apr 17 4:00 PM, Tegucigalpa, Weather by CustomWeather, © 2014

Note: Actual official high and low records may vary slightly from our data, if they occured in-between our weather recording intervals... More about our weather records

Advertising

Historic Weather Conditions — Data for Previous 24 hours

 ConditionsComfort  
Time TempWeatherWind HumidityBarometerVisibility
4:00 PM
Apr 17
86 °FScattered clouds.9 mph33%30.01 "HgN/A
3:00 PM82 °FPartly sunny.7 mph32%30.01 "HgN/A
2:00 PM81 °FPartly sunny.12 mph34%30.04 "HgN/A
1:00 PM82 °FBroken clouds.9 mph40%30.04 "HgN/A
12:00 PM82 °FPartly sunny.12 mph40%30.07 "HgN/A
11:00 AM81 °FPartly sunny.9 mph42%30.09 "HgN/A
10:00 AM79 °FScattered clouds.12 mph45%30.09 "HgN/A
9:00 AM77 °FScattered clouds.6 mph51%30.12 "Hg5 mi
8:00 AM72 °FBroken clouds.9 mph65%30.09 "Hg4 mi
7:00 AM70 °FBroken clouds.7 mph73%30.09 "Hg4 mi
6:00 AM70 °FPartly sunny.2 mph73%30.07 "Hg5 mi
4:00 AM72 °FPassing clouds.7 mph73%30.04 "HgN/A
3:00 AM72 °FPassing clouds.7 mph73%30.04 "HgN/A
2:00 AM75 °FPassing clouds.7 mph61%30.07 "HgN/A
1:00 AM75 °FPassing clouds.7 mph61%30.07 "HgN/A
12:00 AM75 °FPassing clouds.7 mph61%30.07 "HgN/A
11:00 PM
Apr 16
75 °FPassing clouds.7 mph61%30.07 "HgN/A
10:00 PM75 °FPassing clouds.5 mph65%30.04 "HgN/A
9:00 PM77 °FPassing clouds.9 mph61%30.04 "HgN/A
8:00 PM77 °FPassing clouds.5 mph57%30.01 "HgN/A
7:00 PM79 °FPassing clouds.6 mph42%29.98 "HgN/A
6:00 PM82 °FScattered clouds.7 mph37%29.95 "HgN/A
5:00 PM84 °FPartly sunny.5 mph35%29.92 "HgN/A
Weather by CustomWeather, © 2014

See weather overview